{"data":{"norad_id":66477,"intl_designator":"2025-262X","name":"STARLINK-35354","alt_names":[],"object_type":"PAYLOAD","status":"ACTIVE","operator":null,"country":"US","launch_date":"2025-11-15","launch_site_code":"AFETR","launch_vehicle":null,"mission":null,"orbit_class":"UNKNOWN","rcs_meters":null,"size_class":null,"mass_kg":null,"dimensions":null,"purposes":["comms"],"wikipedia_slug":null,"has_3d_model":false,"image_url":null,"decayed_at":null,"tle_current":{"epoch":"2026-05-25T05:23:40.089120Z","epoch_age_seconds":55944,"freshness":"FRESH","line1":"1 66477U 25262X   26145.22476955  .00015608  00000+0  57503-3 0  9997","line2":"2 66477  42.9994 223.7445 0001640 270.7740  89.2924 15.27606963 30613","mean_motion":15.27606963,"eccentricity":0.000164,"inclination_deg":42.9994,"raan_deg":223.7445,"arg_perigee_deg":270.774,"mean_anomaly_deg":89.2924,"bstar":0.00057503,"rev_number":3061,"period_min":94.265084860051,"perigee_km":481.84313902621,"apogee_km":484.09358158439,"semimajor_km":6861.1053603053,"source":"CELESTRAK","updated_at":"2026-05-25T13:38:21.239626Z"}}}